Location: Silent Lake
(44.9206°N, 78.0708°W)
Time: 09:06:31
(UTC-04:00)

Cosmos 2237 Rocket - Pass Details

Date: 19 April 2018
Orbit: 834 x 851 km, 71.0° (Epoch: 22 May)

Event Time Altitude Azimuth Distance (km) Brightness Sun altitude
Rises 22:20:05 0° 212° (SSW) 3,368 5.2 -21.6°
Reaches altitude 10° 22:22:31 10° 215° (SW) 2,438 4.5 -21.9°
Maximum altitude 22:28:05 67° 298° (WNW) 904 2.5 -22.6°
Drops below altitude 10° 22:33:42 10° 21° (NNE) 2,460 4.9 -23.3°
Sets 22:36:11 0° 24° (NNE) 3,401 5.7 -23.6°
